| time (UTC) | temp F | wind direction | speed knots | gust knots | rain 1hr in | rain 24hr in | rain mn in | humidity % | barometer mb |
| 20260504050531 | 46 | 247 | 0.9 | 0.9 | 0.00 | 0.00 | 0.00 | 92 | 1007.0 |
| 20260504045525 | 46 | 246 | 1.7 | 2.6 | 0.00 | 0.00 | 0.00 | 92 | 1006.9 |
| 20260504045020 | 46 | 249 | 3.5 | 3.5 | 0.00 | 0.00 | 0.00 | 92 | 1007.0 |
| 20260504044518 | 46 | 246 | 0.9 | 1.7 | 0.00 | 0.00 | 0.00 | 91 | 1007.0 |
| 20260504044015 | 46 | 246 | 1.7 | 2.6 | 0.00 | 0.00 | 0.00 | 91 | 1007.0 |
| 20260504043511 | 46 | 248 | 1.7 | 1.7 | 0.00 | 0.00 | 0.00 | 90 | 1007.3 |
| 20260504043009 | 46 | 246 | 1.7 | 1.7 | 0.00 | 0.00 | 0.00 | 90 | 1007.1 |
| 20260504042506 | 46 | 253 | 1.7 | 1.7 | 0.00 | 0.00 | 0.00 | 90 | 1007.3 |
| 20260504042003 | 45 | 254 | 0.9 | 1.7 | 0.00 | 0.00 | 0.00 | 90 | 1007.3 |
| 20260504041459 | 46 | 238 | 1.7 | 2.6 | 0.00 | 0.00 | 0.00 | 90 | 1007.1 |
| 20260504040955 | 46 | 238 | 1.7 | 1.7 | 0.00 | 0.00 | 0.00 | 89 | 1007.1 |
| 20260504040452 | 46 | 235 | 1.7 | 2.6 | 0.00 | 0.00 | 0.00 | 89 | 1007.0 |
| 20260504035948 | 46 | 260 | 0.9 | 1.7 | 0.00 | 0.00 | 0.00 | 89 | 1007.1 |
| 20260504035446 | 46 | 256 | 0.9 | 1.7 | 0.00 | 0.00 | 0.00 | 88 | 1007.1 |
| 20260504034942 | 46 | 256 | 1.7 | 1.7 | 0.00 | 0.00 | 0.00 | 88 | 1006.9 |
| 20260504034440 | 46 | 256 | 1.7 | 2.6 | 0.00 | 0.00 | 0.00 | 88 | 1007.1 |
| 20260504033937 | 46 | 245 | 1.7 | 2.6 | 0.00 | 0.00 | 0.00 | 88 | 1007.2 |
| 20260504033434 | 46 | 244 | 4.3 | 7.0 | 0.00 | 0.00 | 0.00 | 87 | 1007.3 |
| 20260504032931 | 46 | 237 | 2.6 | 5.2 | 0.00 | 0.00 | 0.00 | 87 | 1007.3 |
| 20260504032428 | 46 | 265 | 3.5 | 3.5 | 0.00 | 0.00 | 0.00 | 86 | 1007.2 |
| 20260504031925 | 46 | 254 | 1.7 | 3.5 | 0.00 | 0.00 | 0.00 | 86 | 1007.3 |
| 20260504031422 | 46 | 243 | 3.5 | 6.1 | 0.00 | 0.00 | 0.00 | 85 | 1007.2 |
| 20260504030919 | 46 | 238 | 2.6 | 3.5 | 0.00 | 0.00 | 0.00 | 83 | 1007.3 |
| 20260504030416 | 46 | 241 | 3.5 | 3.5 | 0.00 | 0.00 | 0.00 | 82 | 1007.4 |
| 20260504025912 | 46 | 255 | 2.6 | 2.6 | 0.00 | 0.00 | 0.00 | 81 | 1007.3 |
| 20260504025409 | 46 | 238 | 2.6 | 3.5 | 0.00 | 0.00 | 0.00 | 79 | 1007.3 |
| 20260504024906 | 47 | 238 | 3.5 | 5.2 | 0.00 | 0.00 | 0.00 | 76 | 1007.5 |
| 20260504024402 | 48 | 256 | 3.5 | 6.1 | 0.00 | 0.00 | 0.00 | 71 | 1007.4 |
| 20260504023900 | 48 | 242 | 2.6 | 3.5 | 0.00 | 0.00 | 0.00 | 68 | 1007.5 |
| 20260504023356 | 48 | 237 | 2.6 | 2.6 | 0.00 | 0.00 | 0.00 | 67 | 1007.5 |
| 20260504022851 | 48 | 253 | 3.5 | 5.2 | 0.00 | 0.00 | 0.00 | 66 | 1007.5 |
| 20260504022348 | 48 | 235 | 0.9 | 0.9 | 0.00 | 0.00 | 0.00 | 64 | 1007.6 |
| 20260504021845 | 48 | 253 | 2.6 | 2.6 | 0.00 | 0.00 | 0.00 | 64 | 1007.6 |
| 20260504021342 | 48 | 238 | 0.9 | 1.7 | 0.00 | 0.00 | 0.00 | 62 | 1007.7 |
| 20260504020839 | 48 | 253 | 0.9 | 1.7 | 0.00 | 0.00 | 0.00 | 61 | 1007.7 |
| 20260504020336 | 48 | 253 | 1.7 | 1.7 | 0.00 | 0.00 | 0.00 | 60 | 1007.9 |
| 20260504015832 | 48 | 253 | 0.9 | 1.7 | 0.00 | 0.00 | 0.00 | 59 | 1007.8 |
| 20260504015328 | 48 | 253 | 1.7 | 2.6 | 0.00 | 0.00 | 0.00 | 57 | 1007.9 |
| 20260504014825 | 48 | 253 | 1.7 | 1.7 | 0.00 | 0.00 | 0.00 | 58 | 1007.9 |
| 20260504014320 | 48 | 253 | 0.9 | 1.7 | 0.00 | 0.00 | 0.00 | 57 | 1007.9 |
| 20260504013819 | 48 | 253 | 1.7 | 1.7 | 0.00 | 0.00 | 0.00 | 56 | 1008.1 |
| 20260504013316 | 48 | 253 | 1.7 | 1.7 | 0.00 | 0.00 | 0.00 | 55 | 1008.0 |
| 20260504012813 | 48 | 254 | 0.9 | 2.6 | 0.00 | 0.00 | 0.00 | 56 | 1007.8 |
| 20260504012311 | 48 | 239 | 2.6 | 2.6 | 0.00 | 0.00 | 0.00 | 53 | 1008.1 |
| 20260504011808 | 48 | 256 | 1.7 | 2.6 | 0.00 | 0.00 | 0.00 | 56 | 1008.0 |
| 20260504011304 | 48 | 262 | 2.6 | 3.5 | 0.00 | 0.00 | 0.00 | 53 | 1007.8 |
| 20260504010800 | 48 | 260 | 1.7 | 2.6 | 0.00 | 0.00 | 0.00 | 51 | 1007.9 |
| 20260504010256 | 48 | 255 | 2.6 | 3.5 | 0.00 | 0.00 | 0.00 | 50 | 1007.9 |
| 20260504005753 | 49 | 260 | 1.7 | 2.6 | 0.00 | 0.00 | 0.00 | 48 | 1007.7 |
| 20260504005249 | 49 | 243 | 2.6 | 2.6 | 0.00 | 0.00 | 0.00 | 46 | 1007.9 |
| 20260504004747 | 49 | 241 | 3.5 | 3.5 | 0.00 | 0.00 | 0.00 | 46 | 1007.6 |
| 20260504004244 | 49 | 236 | 2.6 | 3.5 | 0.00 | 0.00 | 0.00 | 44 | 1007.7 |
| 20260504003740 | 49 | 274 | 2.6 | 3.5 | 0.00 | 0.00 | 0.00 | 45 | 1007.9 |
| 20260504003238 | 49 | 238 | 3.5 | 3.5 | 0.00 | 0.00 | 0.00 | 45 | 1007.7 |
| 20260504002734 | 49 | 243 | 3.5 | 3.5 | 0.00 | 0.00 | 0.00 | 45 | 1007.7 |
| 20260504002231 | 49 | 248 | 4.3 | 6.1 | 0.00 | 0.00 | 0.00 | 45 | 1007.6 |
| 20260504001729 | 49 | 250 | 3.5 | 3.5 | 0.00 | 0.00 | 0.00 | 45 | 1007.6 |
| 20260504001226 | 49 | 243 | 2.6 | 2.6 | 0.00 | 0.00 | 0.00 | 45 | 1007.9 |
| 20260504000722 | 49 | 258 | 2.6 | 2.6 | 0.00 | 0.00 | 0.00 | 45 | 1007.7 |
| 20260504000219 | 50 | 248 | 3.5 | 5.2 | 0.00 | 0.00 | 0.00 | 45 | 1007.6 |
| 20260503235718 | 50 | 297 | 2.6 | 5.2 | 0.00 | 0.00 | 0.00 | 44 | 1007.9 |
| 20260503235214 | 49 | 259 | 2.6 | 3.5 | 0.00 | 0.00 | 0.00 | 44 | 1007.8 |
| 20260503234712 | 50 | 251 | 2.6 | 2.6 | 0.00 | 0.00 | 0.00 | 45 | 1007.7 |
| 20260503234210 | 50 | 246 | 2.6 | 2.6 | 0.00 | 0.00 | 0.00 | 44 | 1007.7 |
| 20260503233707 | 50 | 247 | 2.6 | 3.5 | 0.00 | 0.00 | 0.00 | 44 | 1007.9 |
| 20260503233203 | 50 | 243 | 0.9 | 1.7 | 0.00 | 0.00 | 0.00 | 45 | 1007.8 |
| 20260503232700 | 50 | 252 | 3.5 | 3.5 | 0.00 | 0.00 | 0.00 | 43 | 1007.9 |
| 20260503232157 | 51 | 234 | 2.6 | 2.6 | 0.00 | 0.00 | 0.00 | 44 | 1007.8 |
| 20260503231655 | 51 | 264 | 2.6 | 3.5 | 0.00 | 0.00 | 0.00 | 44 | 1007.8 |
| 20260503231151 | 51 | 264 | 3.5 | 5.2 | 0.00 | 0.00 | 0.00 | 43 | 1007.9 |
| 20260503230648 | 51 | 262 | 2.6 | 2.6 | 0.00 | 0.00 | 0.00 | 45 | 1007.8 |
| 20260503230145 | 51 | 268 | 0.9 | 0.9 | 0.00 | 0.00 | 0.00 | 44 | 1007.9 |
| 20260503225642 | 52 | 246 | 5.2 | 5.2 | 0.00 | 0.00 | 0.00 | 41 | 1007.8 |
| 20260503225142 | 51 | 257 | 3.5 | 3.5 | 0.00 | 0.00 | 0.00 | 43 | 1008.0 |
| 20260503224640 | 51 | 262 | 0.9 | 0.9 | 0.00 | 0.00 | 0.00 | 43 | 1007.9 |
| 20260503224138 | 51 | 257 | 3.5 | 6.1 | 0.00 | 0.00 | 0.00 | 42 | 1007.9 |
| 20260503223636 | 52 | 256 | 1.7 | 2.6 | 0.00 | 0.00 | 0.00 | 42 | 1008.0 |
| 20260503223132 | 52 | 265 | 0.9 | 2.6 | 0.00 | 0.00 | 0.00 | 43 | 1007.9 |
| 20260503222629 | 51 | 241 | 2.6 | 3.5 | 0.00 | 0.00 | 0.00 | 42 | 1008.0 |
| 20260503222126 | 51 | 258 | 2.6 | 2.6 | 0.00 | 0.00 | 0.00 | 45 | 1007.9 |
| 20260503221625 | 51 | 252 | 2.6 | 2.6 | 0.00 | 0.00 | 0.00 | 45 | 1008.2 |
| 20260503221122 | 51 | 249 | 3.5 | 3.5 | 0.00 | 0.00 | 0.00 | 46 | 1008.1 |
| 20260503220619 | 51 | 241 | 5.2 | 6.1 | 0.00 | 0.00 | 0.00 | 45 | 1008.1 |
| 20260503220115 | 52 | 252 | 4.3 | 5.2 | 0.00 | 0.00 | 0.00 | 44 | 1008.1 |
| 20260503215612 | 52 | 246 | 4.3 | 6.1 | 0.00 | 0.00 | 0.00 | 43 | 1008.1 |
| 20260503215109 | 52 | 223 | 1.7 | 3.5 | 0.00 | 0.00 | 0.00 | 44 | 1008.1 |
| 20260503214608 | 52 | 252 | 2.6 | 3.5 | 0.00 | 0.00 | 0.00 | 44 | 1008.3 |
| 20260503214103 | 52 | 248 | 4.3 | 5.2 | 0.00 | 0.00 | 0.00 | 43 | 1008.1 |
| 20260503213602 | 52 | 237 | 2.6 | 3.5 | 0.00 | 0.00 | 0.00 | 44 | 1008.3 |
| 20260503213058 | 52 | 234 | 5.2 | 7.8 | 0.00 | 0.00 | 0.00 | 45 | 1008.3 |
| 20260503212556 | 51 | 245 | 4.3 | 6.1 | 0.00 | 0.00 | 0.00 | 44 | 1008.4 |
| 20260503212053 | 51 | 282 | 4.3 | 8.7 | 0.00 | 0.00 | 0.00 | 44 | 1008.4 |
| 20260503211550 | 52 | 257 | 2.6 | 2.6 | 0.00 | 0.00 | 0.00 | 44 | 1008.4 |
| 20260503211045 | 52 | 241 | 5.2 | 6.1 | 0.00 | 0.00 | 0.00 | 43 | 1008.5 |
| 20260503210543 | 52 | 239 | 1.7 | 2.6 | 0.00 | 0.00 | 0.00 | 43 | 1008.5 |
| 20260503210038 | 52 | 231 | 4.3 | 6.1 | 0.00 | 0.00 | 0.00 | 42 | 1008.5 |
| 20260503205535 | 52 | 245 | 5.2 | 7.0 | 0.00 | 0.00 | 0.00 | 40 | 1008.7 |
| 20260503205032 | 53 | 256 | 0.9 | 1.7 | 0.00 | 0.00 | 0.00 | 39 | 1008.5 |
| 20260503204529 | 53 | 260 | 3.5 | 5.2 | 0.00 | 0.00 | 0.00 | 41 | 1008.7 |
| 20260503204026 | 53 | 265 | 0.0 | 0.0 | 0.00 | 0.00 | 0.00 | 40 | 1008.8 |
| 20260503203523 | 53 | 258 | 1.7 | 1.7 | 0.00 | 0.00 | 0.00 | 45 | 1008.7 |
| 20260503203020 | 53 | 274 | 0.9 | 0.9 | 0.00 | 0.00 | 0.00 | 42 | 1008.8 |
| 20260503202518 | 53 | 255 | 1.7 | 2.6 | 0.00 | 0.00 | 0.00 | 41 | 1008.8 |
| 20260503202015 | 54 | 267 | 2.6 | 3.5 | 0.00 | 0.00 | 0.00 | 39 | 1008.8 |
| 20260503201514 | 53 | 318 | 3.5 | 5.2 | 0.00 | 0.00 | 0.00 | 38 | 1008.6 |
| 20260503201010 | 53 | 245 | 2.6 | 2.6 | 0.00 | 0.00 | 0.00 | 39 | 1008.7 |
| 20260503200507 | 53 | 255 | 5.2 | 6.1 | 0.00 | 0.00 | 0.00 | 36 | 1008.7 |
| 20260503200003 | 55 | 236 | 3.5 | 3.5 | 0.00 | 0.00 | 0.00 | 37 | 1008.9 |
| 20260503195500 | 55 | 272 | 1.7 | 1.7 | 0.00 | 0.00 | 0.00 | 38 | 1008.8 |
| 20260503194957 | 54 | 287 | 0.9 | 1.7 | 0.00 | 0.00 | 0.00 | 37 | 1008.8 |
| 20260503194455 | 54 | 238 | 4.3 | 8.7 | 0.00 | 0.00 | 0.00 | 36 | 1009.1 |
| 20260503193949 | 53 | 282 | 1.7 | 5.2 | 0.00 | 0.00 | 0.00 | 38 | 1009.1 |
| 20260503193445 | 56 | 276 | 1.7 | 1.7 | 0.00 | 0.00 | 0.00 | 36 | 1009.2 |
| 20260503192940 | 55 | 265 | 0.9 | 1.7 | 0.00 | 0.00 | 0.00 | 40 | 1009.2 |
| 20260503192437 | 53 | 251 | 3.5 | 5.2 | 0.00 | 0.00 | 0.00 | 42 | 1009.2 |
| 20260503191933 | 53 | 259 | 0.9 | 0.9 | 0.00 | 0.00 | 0.00 | 38 | 1009.2 |
| 20260503191431 | 55 | 257 | 1.7 | 2.6 | 0.00 | 0.00 | 0.00 | 37 | 1009.3 |
| 20260503190927 | 53 | 248 | 3.5 | 5.2 | 0.00 | 0.00 | 0.00 | 39 | 1009.1 |
| 20260503190425 | 52 | 274 | 3.5 | 5.2 | 0.00 | 0.00 | 0.00 | 38 | 1009.3 |
| 20260503185921 | 53 | 254 | 1.7 | 2.6 | 0.00 | 0.00 | 0.00 | 41 | 1009.3 |
| 20260503185418 | 53 | 259 | 0.0 | 0.0 | 0.00 | 0.00 | 0.00 | 39 | 1009.5 |
| 20260503184916 | 54 | 250 | 0.0 | 1.7 | 0.00 | 0.00 | 0.00 | 47 | 1009.4 |
| 20260503184414 | 52 | 252 | 1.7 | 3.5 | 0.00 | 0.00 | 0.00 | 42 | 1009.6 |
| 20260503183910 | 51 | 240 | 1.7 | 3.5 | 0.00 | 0.00 | 0.00 | 43 | 1009.4 |
| 20260503183407 | 53 | 254 | 1.7 | 2.6 | 0.00 | 0.00 | 0.00 | 42 | 1009.6 |
| 20260503182904 | 55 | 239 | 3.5 | 5.2 | 0.00 | 0.00 | 0.00 | 44 | 1009.5 |
| 20260503182403 | 54 | 277 | 0.9 | 1.7 | 0.00 | 0.00 | 0.00 | 41 | 1009.6 |
| 20260503181859 | 55 | 321 | 0.0 | 0.9 | 0.00 | 0.00 | 0.00 | 44 | 1009.5 |
| 20260503181356 | 53 | 247 | 2.6 | 3.5 | 0.00 | 0.00 | 0.00 | 42 | 1009.6 |
| 20260503180853 | 54 | 248 | 2.6 | 6.1 | 0.00 | 0.00 | 0.00 | 40 | 1009.6 |
| 20260503180351 | 53 | 231 | 3.5 | 3.5 | 0.00 | 0.00 | 0.00 | 39 | 1009.6 |
| 20260503175847 | 54 | 271 | 0.0 | 0.9 | 0.00 | 0.00 | 0.00 | 40 | 1009.7 |
| 20260503175345 | 53 | 257 | 0.9 | 0.9 | 0.00 | 0.00 | 0.00 | 44 | 1009.6 |
| 20260503174841 | 51 | 266 | 0.0 | 0.0 | 0.00 | 0.00 | 0.00 | 42 | 1009.9 |
| 20260503174340 | 51 | 301 | 0.0 | 0.0 | 0.00 | 0.00 | 0.00 | 41 | 1009.8 |
| 20260503173839 | 52 | 262 | 0.0 | 0.9 | 0.00 | 0.00 | 0.00 | 41 | 1009.9 |
| 20260503173336 | 52 | 260 | 1.7 | 1.7 | 0.00 | 0.00 | 0.00 | 42 | 1010.2 |
| 20260503172833 | 52 | 270 | 0.0 | 0.9 | 0.00 | 0.00 | 0.00 | 39 | 1010.0 |
| 20260503172331 | 52 | 281 | 0.9 | 1.7 | 0.00 | 0.00 | 0.00 | 41 | 1010.0 |
| 20260503171826 | 53 | 281 | 0.0 | 0.0 | 0.00 | 0.00 | 0.00 | 37 | 1010.2 |
| 20260503171324 | 53 | 261 | 0.0 | 0.9 | 0.00 | 0.00 | 0.00 | 38 | 1009.9 |
| 20260503170821 | 51 | 259 | 1.7 | 2.6 | 0.00 | 0.00 | 0.00 | 45 | 1010.2 |
| 20260503170317 | 50 | 270 | 0.0 | 0.0 | 0.00 | 0.00 | 0.00 | 41 | 1010.0 |
| 20260503150710 | 51 | 253 | 2.6 | 5.2 | 0.00 | 0.00 | 0.00 | 46 | 1011.3 |
| 20260503150206 | 51 | 249 | 1.7 | 3.5 | 0.00 | 0.00 | 0.00 | 51 | 1011.3 |
| 20260503140130 | 49 | 251 | 0.9 | 1.7 | 0.00 | 0.00 | 0.00 | 47 | 1011.9 |
| 20260503131059 | 46 | 251 | 0.9 | 0.9 | 0.00 | 0.00 | 0.00 | 61 | 1012.3 |
| 20260503130556 | 46 | 256 | 0.9 | 1.7 | 0.00 | 0.00 | 0.00 | 59 | 1012.6 |
| 20260503110447 | 38 | 242 | 0.0 | 0.0 | 0.00 | 0.00 | 0.00 | 89 | 1011.1 |
| 20260503090338 | 37 | 241 | 0.0 | 0.0 | 0.00 | 0.00 | 0.00 | 94 | 1011.1 |
| 20260503081306 | 37 | 241 | 0.0 | 0.0 | 0.00 | 0.00 | 0.00 | 95 | 1011.1 |
| 20260503080801 | 37 | 241 | 0.0 | 0.0 | 0.00 | 0.00 | 0.00 | 95 | 1011.1 |
| 20260503080259 | 37 | 241 | 0.0 | 0.0 | 0.00 | 0.00 | 0.00 | 95 | 1011.3 |
| 20260503072736 | 37 | 242 | 0.0 | 0.0 | 0.00 | 0.00 | 0.00 | 94 | 1011.2 |
| 20260503072232 | 37 | 242 | 0.0 | 0.0 | 0.00 | 0.00 | 0.00 | 94 | 1011.2 |
| 20260503071729 | 37 | 241 | 0.0 | 0.0 | 0.00 | 0.00 | 0.00 | 93 | 1011.1 |
| 20260503071226 | 38 | 242 | 0.0 | 0.0 | 0.00 | 0.00 | 0.00 | 93 | 1011.1 |
| 20260503070722 | 38 | 241 | 0.0 | 0.0 | 0.00 | 0.00 | 0.00 | 93 | 1011.1 |
| 20260503070220 | 38 | 242 | 0.0 | 0.0 | 0.00 | 0.00 | 0.00 | 93 | 1011.1 |
| 20260503060145 | 38 | 242 | 0.0 | 0.0 | 0.00 | 0.00 | 0.00 | 92 | 1011.5 |
| 20260503054632 | 39 | 242 | 0.0 | 0.0 | 0.00 | 0.00 | 0.00 | 91 | 1011.6 |
| 20260503054129 | 39 | 242 | 0.0 | 0.0 | 0.00 | 0.00 | 0.00 | 91 | 1011.5 |